Sant Hilari Sacalm-Els Cortals (La Selva)





Hora UTC 17:50
Temperatura 9.2 ºC
Humedad 91.0 %
Presión 1007.9 hPa
Pluja 0.0 mm
Velocidad viento 1.6 km/h
Dirección viento E

Datos diarios 2024-04-16



Hora UTC (invierno +1h; verano +2h)
Temperatura (ºC) Humedad (%) Presión (hPa) Velocidad viento (km/h) Precipitación (mm)
Hora UTC Aire Humedad Presión Vel. Dir. Vel. Max Dir. Intent. máx 5 min.
00:05 11.1 76.0 1010.9 0.0 W 0.0 0.0
00:10 11.1 75.0 1010.6 0.0 W 6.4 0.0
00:15 11.1 75.0 1010.5 0.0 W 0.0 0.0
00:20 11.0 76.0 1010.6 0.0 W 0.0 0.0
00:25 10.9 76.0 1010.4 0.0 W 0.0 0.0
00:30 10.8 76.0 1010.4 0.0 W 0.0 0.0
00:35 10.7 76.0 1010.3 0.0 W 0.0 0.0
00:40 10.4 76.0 1010.1 0.0 W 0.0 0.0
00:45 10.3 77.0 1010.3 0.0 W 1.6 0.0
00:50 10.2 77.0 1010.1 0.0 W 0.0 0.0
00:55 10.1 78.0 1010.1 0.0 W 0.0 0.0
01:00 9.9 78.0 1010.0 0.0 W 0.0 0.0
01:05 9.9 78.0 1009.8 0.0 W 0.0 0.0
01:10 9.8 79.0 1009.9 0.0 W 0.0 0.0
01:15 9.7 79.0 1009.9 0.0 W 0.0 0.0
01:20 9.6 79.0 1009.9 0.0 W 0.0 0.0
01:25 9.5 79.0 1009.8 0.0 W 0.0 0.0
01:30 9.3 80.0 1009.8 0.0 W 0.0 0.0
01:35 9.2 80.0 1009.6 0.0 W 0.0 0.0
01:40 9.1 80.0 1009.6 0.0 W 0.0 0.0
01:45 8.9 81.0 1009.5 0.0 W 0.0 0.0
01:50 8.8 81.0 1009.6 0.0 W 0.0 0.0
01:55 8.7 82.0 1009.5 0.0 W 0.0 0.0
02:00 8.6 82.0 1009.6 0.0 W 0.0 0.0
02:05 8.5 82.0 1009.4 0.0 W 0.0 0.0
02:10 8.3 83.0 1009.3 0.0 W 0.0 0.0
02:15 8.3 83.0 1009.3 0.0 W 0.0 0.0
02:20 8.3 84.0 1009.4 0.0 W 0.0 0.0
02:25 8.2 84.0 1009.1 0.0 W 0.0 0.0
02:30 8.2 85.0 1009.1 0.0 W 0.0 0.0
02:35 8.2 85.0 1008.9 0.0 W 0.0 0.0
02:40 8.2 85.0 1008.9 0.0 W 0.0 0.0
02:45 8.2 86.0 1008.9 0.0 W 0.0 0.0
02:50 8.1 86.0 1009.0 0.0 W 0.0 0.0
02:55 8.0 86.0 1008.9 0.0 W 0.0 0.0
03:00 7.9 86.0 1009.1 0.0 W 0.0 0.0
03:05 7.8 86.0 1009.0 0.0 W 0.0 0.0
03:10 7.7 86.0 1009.1 0.0 W 0.0 0.0
03:15 7.5 87.0 1009.1 0.0 W 0.0 0.0
03:20 7.5 87.0 1009.1 0.0 W 0.0 0.0
03:25 7.4 87.0 1009.0 0.0 W 0.0 0.0
03:30 7.3 87.0 1009.1 0.0 W 0.0 0.0
03:35 7.3 88.0 1009.0 0.0 W 0.0 0.0
03:40 7.3 88.0 1008.9 0.0 W 0.0 0.0
03:45 7.2 88.0 1008.9 0.0 W 0.0 0.0
03:50 7.2 88.0 1008.7 0.0 W 0.0 0.0
03:55 7.1 88.0 1008.6 0.0 W 0.0 0.0
04:00 7.0 89.0 1008.5 0.0 W 0.0 0.0
04:05 7.1 89.0 1008.5 0.0 W 0.0 0.0
04:10 7.2 89.0 1008.6 0.0 W 0.0 0.0
04:15 7.2 89.0 1008.3 0.0 W 0.0 0.0
04:20 7.2 89.0 1008.3 0.0 W 0.0 0.0
04:25 7.2 89.0 1008.3 0.0 W 0.0 0.0
04:30 7.1 90.0 1008.3 0.0 W 0.0 0.0
04:35 6.9 89.0 1008.3 0.0 W 0.0 0.0
04:40 7.0 90.0 1008.1 0.0 W 0.0 0.0
04:45 6.9 90.0 1008.2 0.0 W 0.0 0.0
04:50 7.1 90.0 1008.1 0.0 W 0.0 0.0
04:55 7.3 90.0 1008.2 0.0 W 6.4 0.0
05:00 7.4 90.0 1008.3 0.0 W 3.2 0.0
05:05 7.4 90.0 1008.4 0.0 W 0.0 0.0
05:10 7.6 90.0 1008.5 0.0 W 3.2 0.0
05:15 7.6 91.0 1008.9 0.0 W 3.2 0.0
05:20 7.7 91.0 1008.9 1.6 W 1.6 0.0
05:25 7.6 90.0 1008.8 0.0 W 8.0 0.0
05:30 7.5 90.0 1008.7 0.0 W 6.4 0.0
05:35 7.4 90.0 1008.6 0.0 W 1.6 0.0
05:40 7.3 90.0 1008.4 0.0 W 0.0 0.0
05:45 7.2 90.0 1008.6 0.0 W 1.6 0.0
05:50 7.2 90.0 1008.5 0.0 W 1.6 0.0
05:55 7.1 90.0 1008.5 0.0 W 3.2 0.0
06:00 7.2 90.0 1008.6 0.0 W 3.2 0.0
06:05 7.4 90.0 1008.6 0.0 WNW 0.0 0.0
06:10 7.8 91.0 1008.5 0.0 WNW 0.0 0.0
06:15 8.3 91.0 1008.6 0.0 WNW 0.0 0.0
06:20 8.7 90.0 1008.7 0.0 NNE 3.2 0.0
06:25 9.0 90.0 1008.7 0.0 NNE 6.4 0.0
06:30 9.3 89.0 1008.7 0.0 NNE 6.4 0.0
06:35 9.7 88.0 1008.6 0.0 NNE 0.0 0.0
06:40 10.0 87.0 1008.6 3.2 NNE 6.4 0.0
06:45 10.3 87.0 1008.6 6.4 E 6.4 0.0
06:50 10.4 85.0 1008.7 1.6 ESE 9.7 0.0
06:55 10.4 85.0 1008.6 6.4 E 9.7 0.0
07:00 10.5 85.0 1008.7 3.2 NE 8.0 0.0
07:05 10.6 84.0 1008.7 0.0 NE 8.0 0.0
07:10 10.8 84.0 1008.6 3.2 NE 4.8 0.0
07:15 11.0 84.0 1008.5 3.2 NE 3.2 0.0
07:20 11.2 83.0 1008.7 0.0 NE 3.2 0.0
07:25 11.1 80.0 1008.6 0.0 NE 9.7 0.0
07:30 10.8 80.0 1008.7 3.2 NE 9.7 0.0
07:35 10.6 81.0 1008.5 3.2 E 8.0 0.0
07:40 10.4 82.0 1008.6 6.4 ENE 12.9 0.0
07:45 10.3 82.0 1008.6 4.8 E 12.9 0.0
07:50 10.1 84.0 1008.8 3.2 ENE 8.0 0.0
07:55 10.0 85.0 1008.7 4.8 E 8.0 0.0
08:00 10.0 86.0 1008.7 1.6 E 8.0 0.0
08:05 9.9 86.0 1008.7 0.0 NNE 6.4 0.0
08:10 9.9 87.0 1008.8 0.0 NE 6.4 0.0
08:15 10.0 87.0 1008.6 3.2 E 6.4 0.0
08:20 10.1 87.0 1008.8 1.6 ENE 8.0 0.0
08:25 10.2 87.0 1008.7 4.8 E 8.0 0.0
08:30 10.2 87.0 1008.7 3.2 E 6.4 0.0
08:35 10.2 87.0 1008.8 1.6 ESE 6.4 0.0
08:40 10.3 87.0 1008.8 0.0 ENE 8.0 0.0
08:45 10.4 87.0 1008.5 0.0 ESE 8.0 0.0
08:50 10.6 88.0 1008.5 3.2 ENE 8.0 0.0
08:55 10.9 87.0 1008.6 6.4 ENE 12.9 0.0
09:00 11.1 87.0 1008.6 3.2 ENE 12.9 0.0
09:05 11.3 86.0 1008.5 1.6 ESE 8.0 0.0
09:10 11.3 84.0 1008.6 0.0 S 6.4 0.0
09:15 11.3 84.0 1008.6 8.0 SW 9.7 0.0
09:20 11.8 85.0 1008.7 6.4 SSW 9.7 0.0
09:25 11.9 79.0 1008.8 12.9 S 14.5 0.0
09:30 12.1 79.0 1008.8 8.0 S 14.5 0.0
09:35 12.4 77.0 1008.9 6.4 WSW 12.9 0.0
09:40 12.9 77.0 1009.0 6.4 ENE 11.3 0.0
09:45 13.0 79.0 1008.9 1.6 ENE 11.3 0.0
09:50 12.9 79.0 1008.9 6.4 ESE 9.7 0.0
09:55 12.7 79.0 1008.8 0.0 NE 8.0 0.0
10:00 12.7 81.0 1008.8 3.2 ESE 11.3 0.0
10:05 12.6 81.0 1008.8 3.2 ESE 11.3 0.0
10:10 12.4 81.0 1008.7 8.0 ENE 9.7 0.0
10:15 12.2 82.0 1008.9 6.4 E 16.1 0.0
10:20 12.2 82.0 1008.9 8.0 E 16.1 0.0
10:25 12.2 82.0 1008.8 6.4 ESE 11.3 0.0
10:30 12.1 82.0 1008.8 8.0 ESE 11.3 0.0
10:35 12.1 83.0 1008.8 6.4 ENE 11.3 0.0
10:40 12.2 84.0 1008.9 0.0 ESE 11.3 0.0
10:45 12.3 83.0 1008.8 3.2 SE 14.5 0.0
10:50 12.2 84.0 1008.9 8.0 SE 14.5 0.0
10:55 11.9 84.0 1008.8 6.4 NNE 12.9 0.0
11:00 11.9 84.0 1008.7 6.4 NE 14.5 0.0
11:05 11.8 85.0 1008.7 1.6 ENE 14.5 0.0
11:10 11.9 85.0 1008.7 6.4 E 9.7 0.0
11:15 11.9 85.0 1008.6 8.0 E 14.5 0.0
11:20 11.9 85.0 1008.6 6.4 SE 14.5 0.0
11:25 11.8 85.0 1008.6 8.0 E 11.3 0.0
11:30 11.8 86.0 1008.5 6.4 SE 14.5 0.0
11:35 12.0 86.0 1008.5 6.4 ENE 12.9 0.0
11:40 12.1 86.0 1008.4 3.2 ENE 12.9 0.0
11:45 12.0 85.0 1008.4 11.3 E 12.9 0.0
11:50 11.9 85.0 1008.4 8.0 NNE 12.9 0.0
11:55 12.1 86.0 1008.3 12.9 E 12.9 0.0
12:00 12.4 86.0 1008.3 14.5 ESE 14.5 0.0
12:05 12.6 85.0 1008.2 8.0 NE 16.1 0.0
12:10 12.7 84.0 1008.1 6.4 E 17.7 0.0
12:15 12.5 84.0 1008.2 8.0 E 12.9 0.0
12:20 12.4 85.0 1008.2 3.2 SE 16.1 0.0
12:25 12.4 85.0 1008.1 4.8 SE 16.1 0.0
12:30 12.7 85.0 1008.1 9.7 ENE 14.5 0.0
12:35 12.8 84.0 1008.0 6.4 E 14.5 0.0
12:40 13.1 83.0 1007.9 11.3 ESE 16.1 0.0
12:45 12.8 83.0 1008.0 14.5 ENE 17.7 0.0
12:50 12.6 83.0 1007.9 1.6 ENE 16.1 0.0
12:55 12.7 84.0 1008.0 6.4 E 14.5 0.0
13:00 12.6 83.0 1007.9 9.7 E 20.9 0.0
13:05 12.7 83.0 1007.9 6.4 ENE 20.9 0.0
13:10 12.6 83.0 1008.0 8.0 ESE 16.1 0.0
13:15 12.6 84.0 1007.8 4.8 E 16.1 0.0
13:20 12.8 84.0 1007.8 12.9 ESE 16.1 0.0
13:25 12.8 83.0 1007.8 8.0 ESE 17.7 0.0
13:30 12.8 84.0 1007.7 9.7 NNE 20.9 0.0
13:35 12.8 83.0 1007.7 9.7 E 20.9 0.0
13:40 12.7 83.0 1007.6 6.4 E 14.5 0.0
13:45 12.7 83.0 1007.4 8.0 ENE 16.1 0.0
13:50 12.7 85.0 1007.4 11.3 ENE 17.7 0.0
13:55 12.5 84.0 1007.3 8.0 ENE 17.7 0.0
14:00 12.2 85.0 1007.8 6.4 E 16.1 0.0
14:05 11.8 85.0 1007.7 8.0 NE 16.1 0.0
14:10 11.6 86.0 1007.6 8.0 E 16.1 0.0
14:15 11.5 87.0 1007.5 11.3 E 14.5 0.0
14:20 11.3 87.0 1007.6 6.4 S 19.3 0.0
14:25 11.3 88.0 1007.3 12.9 ENE 19.3 0.0
14:30 11.4 89.0 1007.2 9.7 E 16.1 0.0
14:35 11.5 88.0 1007.1 6.4 ENE 16.1 0.0
14:40 11.4 88.0 1007.2 4.8 SE 16.1 0.0
14:45 11.2 88.0 1007.1 11.3 E 16.1 0.0
14:50 11.0 89.0 1007.1 11.3 NE 16.1 0.0
14:55 10.8 89.0 1007.1 8.0 ESE 16.1 0.0
15:00 10.7 90.0 1007.3 8.0 E 11.3 0.0
15:05 10.6 90.0 1007.1 12.9 ESE 14.5 0.0
15:10 10.4 90.0 1007.4 8.0 ESE 14.5 0.0
15:15 10.3 90.0 1007.1 3.2 E 11.3 0.0
15:20 10.3 91.0 1007.2 8.0 ENE 12.9 0.0
15:25 10.2 91.0 1007.3 3.2 NE 12.9 0.0
15:30 10.2 91.0 1007.3 8.0 E 14.5 0.0
15:35 10.1 91.0 1007.2 9.7 SSE 17.7 0.0
15:40 10.1 91.0 1007.2 8.0 E 17.7 0.0
15:45 10.1 91.0 1007.2 9.7 E 12.9 0.0
15:50 10.0 91.0 1007.3 6.4 ENE 12.9 0.0
15:55 9.9 91.0 1007.2 8.0 ESE 16.1 0.0
16:00 9.9 91.0 1007.2 8.0 ENE 16.1 0.0
16:05 9.8 91.0 1007.3 6.4 ENE 14.5 0.0
16:10 9.8 91.0 1007.2 6.4 ENE 14.5 0.0
16:15 9.7 91.0 1007.1 9.7 ENE 12.9 0.0
16:20 9.7 91.0 1007.3 8.0 E 16.1 0.0
16:25 9.7 91.0 1007.3 9.7 E 16.1 0.0
16:30 9.7 91.0 1007.3 4.8 E 14.5 0.0
16:35 9.8 91.0 1007.4 11.3 E 14.5 0.0
16:40 9.8 91.0 1007.1 9.7 E 14.5 0.0
16:45 9.7 91.0 1007.1 8.0 ENE 14.5 0.0
16:50 9.7 91.0 1007.2 9.7 ESE 16.1 0.0
16:55 9.6 91.0 1007.2 6.4 ENE 12.9 0.0
17:00 9.6 91.0 1007.3 6.4 SE 16.1 0.0
17:05 9.4 91.0 1007.4 8.0 ESE 16.1 0.0
17:10 9.5 91.0 1007.6 6.4 ESE 14.5 0.0
17:15 9.4 91.0 1007.5 6.4 SE 11.3 0.0
17:20 9.4 91.0 1007.7 4.8 ESE 11.3 0.0
17:25 9.4 91.0 1007.7 8.0 E 11.3 0.0
17:30 9.4 91.0 1007.7 6.4 E 11.3 0.0
17:35 9.4 91.0 1007.9 1.6 ESE 11.3 0.0
17:40 9.3 91.0 1007.5 8.0 ESE 12.9 0.0
17:45 9.3 91.0 1007.7 1.6 ESE 12.9 0.0
17:50 9.2 91.0 1007.9 1.6 E 11.3 0.0
Máxima 13.1 91.0 1010.9 14.5 ENE 20.9 0.0
Mínima 6.9 75.0 1007.1
Total 0.0